Regional Weather Roundup
Issued by NWS

Home | Current Version | Previous Version | Graphics & Text | Print | Product List | Glossary On
Versions: 1 2 3 4 5 6 7 8 9 10 11 12 13 14 15 16 17 18 19 20 21 22 23 24 25 26 27 28 29 30 31 32 33 34 35 36 37 38 39 40 41 42 43 44 45 46 47 48 49 50
000
ASUS43 KOAX 300602
RWRNE

WEATHER ROUNDUP FOR NEBRASKA
NATIONAL WEATHER SERVICE OMAHA NE
100 AM CDT SUN AUG 30 2015

NOTES: SATELLITE DATA IS BEING USED TO AUGMENT CLOUD COVER ABOVE
       12000 FEET.
       "FAIR" INDICATES FEW OR NO CLOUDS BELOW 12,000 FEET WITH NO
       SIGNIFICANT WEATHER AND/OR OBSTRUCTIONS TO VISIBILITY.

  * THESE STATIONS DO NOT REPORT WEATHER SUCH AS RAIN...SNOW OR FOG.

NEZ001>004-019>022-054>056-300700-
NEBRASKA PANHANDLE

CITY           SKY/WX    TMP DP  RH WIND       PRES   REMARKS
SCOTTSBLUFF    PTCLDY    66  46  48 E9        30.03F
6HR MIN TEMP:  64; 6HR MAX TEMP:  88;

ALLIANCE       CLEAR     64  48  56 SE8       30.03F
6HR MIN TEMP:  64; 6HR MAX TEMP:  89;

CHADRON        PTCLDY    78  43  28 S23       29.94F
6HR MIN TEMP:  71; 6HR MAX TEMP:  92;

KIMBALL        PTCLDY    63  42  46 S12       30.10S
SIDNEY         CLEAR     65  40  39 S9        30.10F
6HR MIN TEMP:  65; 6HR MAX TEMP:  89;

$$

NEZ057>060-069>072-079>082-300700-
SOUTHWEST NEBRASKA

CITY           SKY/WX    TMP DP  RH WIND       PRES   REMARKS
NORTH PLATTE   CLEAR     68  56  65 SE7       30.05F
6HR MIN TEMP:  63; 6HR MAX TEMP:  80;

IMPERIAL       CLEAR     70  48  45 S9        30.07F
6HR MIN TEMP:  65; 6HR MAX TEMP:  88;

MCCOOK         CLEAR     68  54  60 S8        30.06S
6HR MIN TEMP:  67; 6HR MAX TEMP:  86;

$$

NEZ005>010-023>029-035>040-094-300700-
NORTH CENTRAL NEBRASKA

CITY           SKY/WX    TMP DP  RH WIND       PRES   REMARKS
VALENTINE      CLEAR     71  59  65 SW13      29.98S
6HR MIN TEMP:  71; 6HR MAX TEMP:  89;

AINSWORTH      CLEAR     68  62  80 S12       30.01S
BROKEN BOW     CLEAR     62  59  90 S3        30.05S
6HR MIN TEMP:  61; 6HR MAX TEMP:  82;

O`NEILL        MOCLDY    66  64  96 S8        30.01S
ORD            CLEAR     59  58  96 CALM      30.03S
6HR MIN TEMP:  59; 6HR MAX TEMP:  82;

$$

NEZ041-046>049-061>064-073>077-083>087-300700-
SOUTH CENTRAL NEBRASKA

CITY           SKY/WX    TMP DP  RH WIND       PRES   REMARKS
GRAND ISLAND   FAIR      63  61  93 S8        30.06S
6HR MIN TEMP:  63; 6HR MAX TEMP:  78;

AURORA         FAIR      61  61 100 SE7       30.06S FOG
HASTINGS       FAIR      63  61  93 S8        30.06S
6HR MIN TEMP:  63; 6HR MAX TEMP:  78;

KEARNEY *      FAIR      61  55  82 S6        30.06S
YORK           CLOUDY    63  63 100 S7        30.07S FOG
$$

NEZ011>018-030>034-042>045-300700-
NORTHEAST NEBRASKA

CITY           SKY/WX    TMP DP  RH WIND       PRES   REMARKS
NORFOLK        CLOUDY    63  62  97 S12       30.04S FOG
6HR MIN TEMP:  63; 6HR MAX TEMP:  75;

ALBION         FAIR      63  61  93 SE7       30.05S FOG
BLAIR          CLOUDY    64  61  90 S5        30.05S
COLUMBUS *     MOCLDY   N/A N/A N/A S5        30.06S
FREMONT        CLOUDY    64  61  89 S5        30.06R
TEKAMAH        CLOUDY    64  63  96 S3        30.04F
6HR MIN TEMP:  60; 6HR MAX TEMP:  69;

$$

NEZ050>053-065>068-078-088>093-300700-
SOUTHEAST NEBRASKA

CITY           SKY/WX    TMP DP  RH WIND       PRES   REMARKS
LINCOLN        CLOUDY    63  60  90 S8        30.07S FOG
6HR MIN TEMP:  63; 6HR MAX TEMP:  70;

OMAHA EPPLEY   CLOUDY    68  64  87 S7        30.05S
6HR MIN TEMP:  67; 6HR MAX TEMP:  72;

BEATRICE       CLOUDY    62  60  94 CALM      30.06S
FALLS CITY     FAIR      58  57  97 CALM      30.05S
6HR MIN TEMP:  58; 6HR MAX TEMP:  68;

NEBRASKA CITY  FAIR      60  59  98 W5        30.06R
PLATTSMOUTH    FAIR      62  60  93 CALM      30.06S
$$

NEZ044-045-051>053-067-300700-
OMAHA AREA

CITY           SKY/WX    TMP DP  RH WIND       PRES   REMARKS
OMAHA EPPLEY   CLOUDY    68  64  87 S7        30.05S
6HR MIN TEMP:  67; 6HR MAX TEMP:  72;

BLAIR          CLOUDY    64  61  90 S5        30.05S
FREMONT        CLOUDY    64  61  89 S5        30.06R
OFFUTT AFB     FAIR      66  63  88 CALM      30.04S
PLATTSMOUTH    FAIR      62  60  93 CALM      30.06S
WAHOO          CLOUDY    63  61  94 S6        30.06S FOG
$$




USA.gov is the U.S. government's official web portal to all federal, state and local government web resources and services.